GW5112 Weather Reports


time (UTC)temp
C
wind
direction
speed
KPH
gust
KPH
rain 1hr
cm
rain 24hr
cm
rain mn
cm
humidity
%
barometer
mb
20260906124434 20 338 0.0 0.0 0.00 0.00 0.00 98 1016.6
20260906123933 20 337 0.0 0.0 0.00 0.00 0.00 99 1016.6
20260906123432 20 337 0.0 0.0 0.00 0.00 0.00 99 1016.4
20260906122927 20 336 0.0 0.0 0.00 0.00 0.00 99 1016.5
20260906122422 20 292 0.0 0.0 0.00 0.00 0.00 98 1016.4
20260906121919 20 44 0.0 1.6 0.00 0.00 0.00 99 1016.4
20260906121415 20 45 0.0 3.2 0.00 0.00 0.00 99 1016.6
20260906120911 20 46 1.6 3.2 0.00 0.00 0.00 99 1016.2
20260906120406 20 60 3.2 9.7 0.00 0.00 0.00 99 1016.5
20260906115902 20 44 0.0 1.6 0.00 0.00 0.00 99 1016.3
20260906115358 20 47 0.0 3.2 0.00 0.00 0.00 99 1016.3
20260906114857 20 44 3.2 4.8 0.00 0.00 0.00 99 1016.1
20260906114352 20 7 1.6 3.2 0.00 0.00 0.00 99 1016.2
20260906113848 20 31 1.6 4.8 0.00 0.00 0.00 99 1016.0
20260906113346 20 41 1.6 4.8 0.00 0.00 0.00 99 1016.1
20260906112842 20 46 1.6 3.2 0.00 0.00 0.00 99 1015.8
20260906112338 20 50 3.2 6.4 0.00 0.00 0.00 99 1015.8
20260906111837 20 46 3.2 4.8 0.00 0.00 0.00 99 1015.7
20260906111337 20 38 1.6 4.8 0.00 0.00 0.00 99 1015.8
20260906110832 20 47 1.6 3.2 0.00 0.00 0.00 99 1015.3
20260906110328 20 23 0.0 3.2 0.00 0.00 0.00 99 1015.5
20260906105827 21 21 3.2 3.2 0.00 0.00 0.00 99 1015.4
20260906105323 21 5 0.0 1.6 0.00 0.00 0.00 99 1015.3
20260906104819 21 5 1.6 3.2 0.00 0.00 0.00 99 1015.2
20260906104317 21 13 0.0 3.2 0.00 0.00 0.00 99 1015.1
20260906103816 21 57 0.0 1.6 0.00 0.00 0.00 99 1015.2
20260906103314 21 58 0.0 1.6 0.00 0.00 0.00 99 1015.0
20260906102811 21 58 0.0 0.0 0.00 0.00 0.00 99 1014.9
20260906102309 21 58 0.0 0.0 0.00 0.00 0.00 99 1014.9
20260906101805 21 58 0.0 0.0 0.00 0.00 0.00 99 1015.0
20260906101300 21 58 0.0 0.0 0.00 0.00 0.00 99 1015.0
20260906100755 21 58 0.0 0.0 0.00 0.00 0.00 99 1015.0
20260906100254 21 58 0.0 0.0 0.00 0.00 0.00 99 1015.0
20260906095750 21 58 0.0 0.0 0.00 0.00 0.00 99 1014.9
20260906095244 21 58 0.0 0.0 0.00 0.00 0.00 99 1014.9
20260906094739 21 58 0.0 0.0 0.00 0.00 0.00 99 1014.9
20260906094234 21 58 0.0 1.6 0.00 0.00 0.00 99 1015.0
20260906093730 21 58 0.0 0.0 0.00 0.00 0.00 99 1014.9
20260906093225 21 58 0.0 0.0 0.00 0.00 0.00 99 1015.0
20260906092721 21 58 1.6 1.6 0.00 0.00 0.00 99 1015.0
20260906092219 21 58 0.0 1.6 0.00 0.00 0.00 99 1014.9
20260906091716 21 58 0.0 1.6 0.00 0.00 0.00 99 1015.0
20260906091212 21 356 1.6 3.2 0.00 0.00 0.00 99 1015.0
20260906090708 21 346 1.6 3.2 0.00 0.00 0.00 99 1014.9
20260906090208 21 39 0.0 0.0 0.00 0.00 0.00 99 1014.9
20260906085707 21 30 0.0 3.2 0.00 0.00 0.00 99 1014.8
20260906085206 20 352 0.0 4.8 0.00 0.00 0.00 99 1015.0
20260906084701 21 48 0.0 0.0 0.00 0.00 0.00 99 1014.9
20260906084200 20 48 1.6 3.2 0.00 0.00 0.00 99 1014.7
20260906083655 20 75 0.0 3.2 0.00 0.00 0.00 99 1014.9
20260906083151 20 188 0.0 1.6 0.00 0.00 0.00 99 1015.0
20260906082646 20 188 0.0 0.0 0.00 0.00 0.00 99 1014.9
20260906082141 20 188 0.0 0.0 0.00 0.00 0.00 99 1014.8
20260906081632 20 188 0.0 0.0 0.00 0.00 0.00 99 1015.0
20260906081126 19 188 0.0 0.0 0.00 0.00 0.00 99 1014.9
20260906080623 19 188 0.0 0.0 0.00 0.00 0.00 99 1014.9
20260906080119 19 188 0.0 0.0 0.00 0.00 0.00 99 1014.9
20260906075618 20 188 0.0 0.0 0.00 0.00 0.00 99 1014.9
20260906075113 19 188 0.0 0.0 0.00 0.00 0.00 99 1014.8
20260906074608 19 188 0.0 0.0 0.00 0.00 0.00 99 1014.7
20260906074108 20 188 0.0 0.0 0.00 0.00 0.00 99 1014.8
20260906073608 20 188 0.0 0.0 0.00 0.00 0.00 99 1014.7
20260906073104 20 188 0.0 0.0 0.00 0.00 0.00 99 1014.6
20260906072558 20 188 0.0 0.0 0.00 0.00 0.00 99 1014.7
20260906072055 20 188 0.0 0.0 0.00 0.00 0.00 99 1014.5
20260906071551 20 188 0.0 0.0 0.00 0.00 0.00 99 1014.8
20260906071045 20 188 1.6 3.2 0.00 0.00 0.00 99 1014.7
20260906070542 20 188 0.0 0.0 0.00 0.00 0.00 99 1014.7
20260906070037 20 188 0.0 0.0 0.00 0.00 0.00 99 1014.7
20260906065537 20 188 0.0 0.0 0.00 0.00 0.00 99 1014.9
20260906065032 19 188 0.0 0.0 0.00 0.00 0.00 99 1015.1
20260906064528 19 188 0.0 0.0 0.00 0.00 0.00 99 1014.8
20260906064022 20 188 0.0 0.0 0.00 0.00 0.00 99 1015.0
20260906063518 20 188 0.0 0.0 0.00 0.00 0.00 99 1014.8
20260906063014 20 188 0.0 0.0 0.00 0.00 0.00 99 1014.8
20260906062508 20 188 0.0 0.0 0.00 0.00 0.00 99 1014.8
20260906062003 20 188 0.0 0.0 0.00 0.00 0.00 99 1014.7
20260906061459 20 188 0.0 0.0 0.00 0.00 0.00 99 1014.7
20260906060953 20 188 0.0 0.0 0.00 0.00 0.00 99 1014.6
20260906060450 20 188 0.0 0.0 0.00 0.00 0.00 99 1014.8
20260906055946 20 188 0.0 0.0 0.00 0.00 0.00 99 1014.9
20260906055442 20 188 0.0 0.0 0.00 0.00 0.00 99 1014.7
20260906054937 20 188 0.0 0.0 0.00 0.00 0.00 99 1014.9
20260906054432 20 188 0.0 0.0 0.00 0.00 0.00 99 1014.8
20260906053928 20 188 0.0 0.0 0.00 0.00 0.00 99 1014.9
20260906053424 20 188 0.0 0.0 0.00 0.00 0.00 99 1015.0
20260906052919 20 188 0.0 0.0 0.00 0.00 0.00 99 1014.9
20260906052415 20 188 0.0 0.0 0.00 0.00 0.00 99 1014.9
20260906051912 20 188 0.0 0.0 0.00 0.00 0.00 99 1014.8
20260906051412 20 188 0.0 0.0 0.00 0.00 0.00 99 1014.8
20260906050908 20 188 0.0 0.0 0.00 0.00 0.00 99 1014.9
20260906050402 20 188 0.0 0.0 0.00 0.00 0.00 99 1014.7
20260906045901 20 188 0.0 0.0 0.00 0.00 0.00 99 1014.9
20260906045400 20 188 0.0 0.0 0.00 0.00 0.00 99 1014.6
20260906044857 20 188 0.0 0.0 0.00 0.00 0.00 99 1014.6
20260906044357 20 188 0.0 0.0 0.00 0.00 0.00 99 1014.6
20260906043853 20 188 0.0 0.0 0.00 0.00 0.00 99 1014.6
20260906043349 21 188 0.0 0.0 0.00 0.00 0.00 99 1014.5
20260906042844 21 188 1.6 1.6 0.00 0.00 0.00 99 1014.5
20260906042342 21 188 3.2 3.2 0.00 0.00 0.00 99 1014.6
20260906041838 21 188 0.0 0.0 0.00 0.00 0.00 99 1014.5
20260906041334 21 188 0.0 0.0 0.00 0.00 0.00 99 1014.4
20260906040834 21 188 0.0 0.0 0.00 0.00 0.00 99 1014.4
20260906040329 21 188 0.0 0.0 0.00 0.56 0.56 99 1014.4
20260906035824 21 188 1.6 3.2 0.00 0.56 0.56 99 1014.6
20260906035325 21 188 3.2 4.8 0.00 0.56 0.56 99 1014.4
20260906034821 21 153 1.6 3.2 0.00 0.56 0.56 99 1014.5
20260906034321 21 153 0.0 0.0 0.00 0.56 0.56 99 1014.4
20260906033816 21 153 1.6 3.2 0.00 0.56 0.56 99 1014.4
20260906033315 21 41 0.0 0.0 0.00 0.56 0.56 99 1014.7
20260906032812 21 37 1.6 3.2 0.00 0.56 0.56 99 1014.6
20260906032307 21 316 0.0 0.0 0.00 0.56 0.56 99 1014.6
20260906031803 21 316 0.0 0.0 0.00 0.56 0.56 99 1014.6
20260906031258 21 316 0.0 0.0 0.00 0.56 0.56 99 1014.7
20260906030758 21 316 0.0 0.0 0.00 0.56 0.56 99 1014.6
20260906030253 21 316 0.0 0.0 0.00 0.56 0.56 99 1014.8
20260906025752 21 316 0.0 0.0 0.00 0.56 0.56 99 1014.9
20260906025247 21 316 0.0 0.0 0.00 0.56 0.56 99 1014.9
20260906024746 21 316 0.0 0.0 0.00 0.56 0.56 99 1014.9
20260906024245 21 316 0.0 0.0 0.00 0.56 0.56 99 1014.9
20260906023741 21 316 0.0 0.0 0.00 0.56 0.56 99 1014.8
20260906023236 21 316 0.0 0.0 0.00 0.56 0.56 99 1014.7
20260906022731 21 316 0.0 0.0 0.00 0.56 0.56 99 1015.0
20260906022227 21 316 0.0 0.0 0.00 0.56 0.56 99 1014.8
20260906021723 21 316 0.0 0.0 0.00 0.56 0.56 99 1014.9
20260906021222 21 316 0.0 0.0 0.00 0.56 0.56 99 1014.9
20260906020717 22 316 0.0 0.0 0.00 0.56 0.56 99 1014.7
20260906020212 22 316 1.6 1.6 0.00 0.56 0.56 99 1014.6
20260906015712 21 316 0.0 0.0 0.00 0.56 0.56 99 1014.5
20260906015210 22 316 0.0 1.6 0.00 0.56 0.56 99 1014.3
20260906014710 22 316 1.6 1.6 0.00 0.56 0.56 99 1014.4
20260906014206 22 318 0.0 0.0 0.00 0.56 0.56 99 1014.1
20260906013702 22 318 0.0 0.0 0.00 0.56 0.56 99 1014.3
20260906013157 22 318 0.0 0.0 0.00 0.56 0.56 99 1014.3
20260906012657 22 318 0.0 0.0 0.00 0.56 0.56 99 1014.3
20260906012151 22 318 0.0 0.0 0.00 0.56 0.56 99 1014.3
20260906011647 22 318 0.0 0.0 0.00 0.56 0.56 99 1013.9
20260906011142 22 318 0.0 0.0 0.00 0.56 0.56 99 1013.9
20260906010638 22 318 0.0 0.0 0.00 0.56 0.56 99 1013.8
20260906010134 22 318 0.0 0.0 0.00 0.56 0.56 99 1013.8
20260906005633 22 318 0.0 0.0 0.00 0.56 0.56 99 1013.6
20260906005133 22 318 0.0 0.0 0.00 0.56 0.56 99 1013.6
20260906004632 22 318 0.0 0.0 0.00 0.56 0.56 99 1013.4
20260906004127 22 318 0.0 0.0 0.00 0.56 0.56 99 1013.6
20260906003622 22 318 0.0 0.0 0.00 0.56 0.56 99 1013.7
20260906003118 22 318 0.0 0.0 0.00 0.56 0.56 99 1013.8
20260906002613 22 318 0.0 0.0 0.00 0.56 0.56 99 1013.4
20260906002107 23 318 0.0 0.0 0.00 0.56 0.56 99 1013.6
20260906001602 23 318 0.0 0.0 0.00 0.56 0.56 98 1013.7
20260906001057 23 318 0.0 0.0 0.00 0.56 0.56 98 1013.8
20260906000553 23 318 0.0 0.0 0.00 0.56 0.56 98 1013.6
20260906000048 23 318 0.0 0.0 0.00 0.56 0.56 97 1013.7
20260905235547 23 318 0.0 0.0 0.00 0.56 0.56 97 1013.7
20260905235042 23 318 0.0 0.0 0.00 0.56 0.56 96 1013.7
20260905234538 23 318 0.0 1.6 0.00 0.56 0.56 96 1013.8
20260905234033 24 318 0.0 0.0 0.00 0.56 0.56 95 1013.7
20260905233532 24 318 0.0 0.0 0.00 0.56 0.56 94 1013.7
20260905233032 25 318 0.0 0.0 0.00 0.56 0.56 93 1013.8
20260905232528 25 318 0.0 0.0 0.00 0.56 0.56 92 1013.6
20260905232023 25 318 0.0 0.0 0.00 0.56 0.56 91 1013.7
20260905231518 26 318 0.0 0.0 0.00 0.56 0.56 89 1013.5
20260905231015 27 318 0.0 0.0 0.00 0.56 0.56 86 1013.6
20260905230514 27 318 0.0 0.0 0.00 0.56 0.56 81 1013.7
20260905230012 28 319 0.0 0.0 0.00 0.56 0.56 78 1013.8
20260905225508 28 319 1.6 1.6 0.00 0.56 0.56 75 1013.9
20260905225002 29 5 0.0 1.6 0.00 0.56 0.56 73 1013.6
20260905224457 29 5 0.0 1.6 0.00 0.56 0.56 73 1013.6
20260905223957 30 5 0.0 1.6 0.00 0.56 0.56 71 1013.7
20260905223455 29 5 0.0 1.6 0.00 0.56 0.56 72 1013.6
20260905222950 29 5 0.0 0.0 0.00 0.56 0.56 73 1013.7
20260905222449 29 5 0.0 1.6 0.00 0.56 0.56 75 1013.7
20260905221944 29 5 0.0 1.6 0.00 0.56 0.56 72 1013.7
20260905221441 28 5 0.0 1.6 0.00 0.56 0.56 74 1013.6
20260905220937 28 5 0.0 1.6 0.00 0.56 0.56 73 1013.7
20260905220433 28 4 1.6 3.2 0.00 0.56 0.56 74 1013.9
20260905215932 28 333 0.0 1.6 0.00 0.56 0.56 78 1013.9
20260905215427 28 333 0.0 1.6 0.00 0.56 0.56 77 1013.7
20260905214924 28 330 1.6 1.6 0.00 0.56 0.56 78 1013.7
20260905214419 28 285 0.0 0.0 0.00 0.56 0.56 79 1013.9
20260905213914 28 285 0.0 1.6 0.00 0.56 0.56 77 1013.8
20260905213410 28 285 0.0 1.6 0.00 0.56 0.56 75 1013.7
20260905212905 29 285 0.0 3.2 0.00 0.56 0.56 73 1013.6
20260905212400 30 323 0.0 3.2 0.00 0.56 0.56 73 1013.5
20260905211859 30 337 4.8 6.4 0.00 0.56 0.56 70 1013.7
20260905211355 30 345 1.6 3.2 0.00 0.56 0.56 70 1013.6
20260905210851 29 315 0.0 3.2 0.00 0.56 0.56 72 1013.4
20260905210350 30 244 3.2 9.7 0.00 0.56 0.56 71 1013.4
20260905205849 29 250 3.2 6.4 0.00 0.56 0.56 72 1013.3
20260905205344 29 217 3.2 6.4 0.00 0.56 0.56 71 1013.4
20260905204843 30 224 0.0 6.4 0.00 0.56 0.56 69 1013.3
20260905204340 30 36 3.2 4.8 0.00 0.56 0.56 72 1013.4
20260905203838 30 208 4.8 6.4 0.00 0.56 0.56 72 1013.6
20260905203335 30 22 0.0 3.2 0.00 0.56 0.56 73 1013.6
20260905202830 30 106 1.6 1.6 0.00 0.56 0.56 73 1013.6
20260905202325 28 240 0.0 1.6 0.00 0.56 0.56 72 1013.6
20260905201821 30 273 1.6 6.4 0.00 0.56 0.56 70 1013.7
20260905201316 31 260 1.6 3.2 0.00 0.56 0.56 72 1013.9
20260905200810 30 213 1.6 4.8 0.00 0.56 0.56 72 1013.8
20260905200307 30 347 1.6 3.2 0.00 0.56 0.56 68 1013.8
20260905195804 31 36 3.2 4.8 0.00 0.56 0.56 68 1013.9
20260905195259 30 281 3.2 3.2 0.00 0.56 0.56 70 1014.3
20260905194755 30 267 0.0 1.6 0.00 0.56 0.56 69 1014.3
20260905194254 30 84 1.6 3.2 0.00 0.56 0.56 69 1014.3
20260905193748 29 154 1.6 1.6 0.00 0.56 0.56 73 1014.4
20260905193243 29 227 1.6 3.2 0.00 0.56 0.56 70 1014.4
20260905192738 31 295 0.0 1.6 0.00 0.56 0.56 69 1014.6
20260905192235 30 252 3.2 4.8 0.00 0.56 0.56 67 1014.6
20260905191734 30 262 3.2 3.2 0.00 0.56 0.56 69 1014.6
20260905191233 28 273 1.6 3.2 0.00 0.56 0.56 72 1014.6
20260905190732 28 243 1.6 1.6 0.00 0.56 0.56 72 1014.9
20260905190231 28 233 6.4 6.4 0.00 0.56 0.56 74 1014.9
20260905185730 28 242 0.0 1.6 0.00 0.56 0.56 73 1014.9
20260905185225 28 254 4.8 6.4 0.00 0.56 0.56 75 1014.9
20260905184725 29 258 6.4 6.4 0.00 0.56 0.56 73 1014.9
20260905184224 29 120 1.6 4.8 0.00 0.56 0.56 71 1015.0
20260905183718 29 120 1.6 4.8 0.00 0.56 0.56 71 1015.0
20260905183213 28 222 0.0 1.6 0.00 0.56 0.56 77 1015.0
20260905182712 29 253 3.2 4.8 0.00 0.56 0.56 73 1015.1
20260905182212 28 276 4.8 6.4 0.00 0.56 0.56 72 1015.1
20260905181708 28 210 3.2 6.4 0.00 0.56 0.56 74 1015.2
20260905181201 28 233 8.0 9.7 0.00 0.56 0.56 73 1015.1
20260905180701 28 243 4.8 6.4 0.00 0.56 0.56 74 1015.2
20260905180157 28 215 0.0 3.2 0.00 0.56 0.56 74 1015.1
20260905175655 27 234 0.0 1.6 0.00 0.56 0.56 76 1015.3
20260905175151 27 235 3.2 4.8 0.00 0.56 0.56 76 1015.3
20260905174647 27 81 6.4 6.4 0.00 0.56 0.56 78 1015.5
20260905174142 28 88 0.0 1.6 0.00 0.56 0.56 77 1015.5
20260905173638 27 85 1.6 4.8 0.00 0.56 0.56 79 1015.2
20260905173134 28 117 3.2 3.2 0.00 0.56 0.56 77 1015.6
20260905172632 28 243 1.6 4.8 0.00 0.56 0.56 78 1015.7
20260905172127 27 269 3.2 3.2 0.00 0.56 0.56 76 1015.6
20260905171623 27 236 3.2 6.4 0.00 0.56 0.56 81 1015.6
20260905171119 27 117 1.6 6.4 0.00 0.56 0.56 80 1015.7
20260905170616 26 211 4.8 9.7 0.00 0.56 0.56 81 1016.0
20260905170111 27 225 3.2 4.8 0.00 0.56 0.56 81 1015.7
20260905165611 27 114 3.2 6.4 0.00 0.56 0.56 82 1015.9
20260905165106 26 122 1.6 1.6 0.00 0.56 0.56 82 1016.0
20260905164555 26 51 3.2 6.4 0.00 0.56 0.56 84 1016.0
20260905164050 26 111 4.8 6.4 0.00 0.56 0.56 83 1016.0
20260905163546 26 81 0.0 9.7 0.00 0.56 0.56 86 1016.2
20260905163042 26 81 1.6 12.9 0.00 0.56 0.56 84 1016.1
20260905162538 26 100 1.6 4.8 0.00 0.56 0.56 84 1016.2
20260905162038 25 125 1.6 6.4 0.00 0.56 0.56 86 1016.3
20260905161537 26 156 1.6 4.8 0.00 0.56 0.56 84 1016.3
20260905161035 26 216 3.2 6.4 0.00 0.56 0.56 83 1016.4
20260905160534 27 37 3.2 9.7 0.00 0.56 0.56 80 1016.6
20260905160028 26 215 1.6 3.2 0.00 0.56 0.56 84 1016.5
20260905155528 25 196 1.6 4.8 0.00 0.56 0.56 85 1016.6
20260905155026 26 92 0.0 1.6 0.00 0.56 0.56 86 1016.6
20260905154522 25 79 0.0 3.2 0.00 0.56 0.56 85 1016.4
20260905154017 26 38 4.8 4.8 0.00 0.56 0.56 88 1016.6
20260905153513 25 181 3.2 4.8 0.00 0.56 0.56 90 1016.4
20260905153014 24 74 1.6 3.2 0.00 0.56 0.56 92 1016.4
20260905152513 24 38 0.0 1.6 0.00 0.56 0.56 94 1016.3
20260905152008 23 9 0.0 1.6 0.00 0.56 0.56 97 1016.5
20260905151503 23 340 0.0 1.6 0.00 0.56 0.56 97 1016.2
20260905150958 23 357 3.2 3.2 0.00 0.56 0.56 98 1016.4
20260905150453 23 274 0.0 4.8 0.00 0.56 0.56 98 1016.4
20260905145950 22 223 1.6 6.4 0.00 0.56 0.56 99 1016.2
20260905145445 22 232 1.6 1.6 0.00 0.56 0.56 99 1015.7
20260905144944 22 231 0.0 1.6 0.00 0.56 0.56 99 1015.4
20260905144440 22 232 0.0 1.6 0.00 0.56 0.56 99 1015.1
20260905143939 22 208 3.2 6.4 0.00 0.56 0.56 99 1015.1
20260905143438 21 213 4.8 4.8 0.00 0.56 0.56 99 1015.5
20260905142932 22 311 0.0 1.6 0.00 0.56 0.56 99 1015.8
20260905142431 22 33 0.0 0.0 0.00 0.56 0.56 99 1015.7
20260905141927 21 217 0.0 3.2 0.00 0.56 0.56 99 1015.0
20260905141422 21 239 3.2 3.2 0.00 0.56 0.56 99 1015.1
20260905140918 21 160 0.0 1.6 0.00 0.56 0.56 99 1015.0
20260905140413 21 160 0.0 3.2 0.00 0.56 0.56 99 1015.4
20260905135912 21 228 1.6 3.2 0.00 0.56 0.56 99 1015.6
20260905135408 21 228 3.2 3.2 0.00 0.56 0.56 99 1016.1
20260905134904 21 228 1.6 4.8 0.00 0.56 0.56 99 1016.3
20260905134402 21 225 0.0 1.6 0.00 0.56 0.56 99 1016.4
20260905133856 21 225 0.0 0.0 0.00 0.56 0.56 99 1016.7
20260905133351 21 232 0.0 3.2 0.00 0.56 0.56 99 1015.9
20260905132851 21 232 1.6 3.2 0.00 0.56 0.56 99 1016.4
20260905132346 21 324 0.0 1.6 0.00 0.56 0.56 99 1016.2
20260905131840 21 320 1.6 1.6 0.00 0.56 0.56 99 1016.2
20260905131336 21 315 0.0 0.0 0.00 0.56 0.56 99 1016.7
20260905130831 21 315 0.0 0.0 0.00 0.56 0.56 99 1016.5
20260905130329 21 315 0.0 0.0 0.00 0.56 0.56 99 1016.9
20260905125825 21 304 0.0 1.6 0.00 0.56 0.56 99 1017.0
20260905125320 21 303 0.0 0.0 0.00 0.56 0.56 99 1016.9
20260905124817 21 307 1.6 1.6 0.00 0.56 0.56 99 1016.6